,,PressureMeas_1m,,PRMeasQMR101_1,,RHStat155_1m_1,,SRMeasQMS101R_1m,,TAStat155_1m_1,,GenWind_1,,GenWind_1,
2019-07-05, 00:00:06,VALID,918.395,VALID,0.0,VALID,98.223,VALID,0.03,VALID,21.922,VALID,13.0,VALID,0.0,
2019-07-05, 00:01:06,VALID,918.388,VALID,0.0,VALID,98.211,VALID,0.028,VALID,21.894,VALID,4.0,VALID,0.0,
2019-07-05, 00:02:06,VALID,918.399,VALID,0.0,VALID,98.211,VALID,0.027,VALID,21.897,VALID,30.0,VALID,0.0,
2019-07-05, 00:03:06,VALID,918.389,VALID,0.0,VALID,98.202,VALID,0.015,VALID,21.89,VALID,19.0,VALID,0.0,
2019-07-05, 00:04:06,VALID,918.386,VALID,0.0,VALID,98.21,VALID,0.024,VALID,21.88,VALID,11.0,VALID,0.0,
2019-07-05, 00:05:06,VALID,918.355,VALID,0.0,VALID,98.241,VALID,0.031,VALID,21.876,VALID,360.0,VALID,0.0,
2019-07-05, 00:06:06,VALID,918.349,VALID,0.0,VALID,98.232,VALID,0.023,VALID,21.857,VALID,5.0,VALID,0.0,
2019-07-05, 00:07:06,VALID,918.326,VALID,0.0,VALID,98.272,VALID,0.011,VALID,21.832,VALID,360.0,VALID,0.0,
2019-07-05, 00:08:06,VALID,918.329,VALID,0.0,VALID,98.33,VALID,0.004,VALID,21.824,VALID,3.0,VALID,0.0,
2019-07-05, 00:09:06,VALID,918.348,VALID,0.0,VALID,98.373,VALID,0.006,VALID,21.806,VALID,355.0,VALID,0.0,
2019-07-05, 00:10:06,VALID,918.361,VALID,0.0,VALID,98.416,VALID,0.014,VALID,21.812,VALID,351.0,VALID,0.0,
2019-07-05, 00:11:06,VALID,918.364,VALID,0.0,VALID,98.446,VALID,0.017,VALID,21.807,VALID,340.0,VALID,0.0,
2019-07-05, 00:12:06,VALID,918.372,VALID,0.0,VALID,98.443,VALID,0.021,VALID,21.795,VALID,332.0,VALID,0.0,
2019-07-05, 00:13:06,VALID,918.346,VALID,0.0,VALID,98.474,VALID,0.014,VALID,21.805,VALID,327.0,VALID,0.0,
2019-07-05, 00:14:06,VALID,918.366,VALID,0.0,VALID,98.41,VALID,0.016,VALID,21.787,VALID,276.0,VALID,0.0,
2019-07-05, 00:15:06,VALID,918.36,VALID,0.0,VALID,98.35,VALID,0.023,VALID,21.763,VALID,256.0,VALID,0.0,
2019-07-05, 00:16:06,VALID,918.37,VALID,0.0,VALID,98.163,VALID,0.017,VALID,21.758,VALID,254.0,VALID,0.0,
2019-07-05, 00:17:06,VALID,918.376,VALID,0.0,VALID,97.987,VALID,0.02,VALID,21.757,VALID,227.0,VALID,0.0,
2019-07-05, 00:18:06,VALID,918.387,VALID,0.0,VALID,97.969,VALID,0.06,VALID,21.811,VALID,228.0,VALID,0.0,
2019-07-05, 00:19:06,VALID,918.386,VALID,0.0,VALID,97.941,VALID,0.054,VALID,21.859,VALID,329.0,VALID,0.0,
2019-07-05, 00:20:06,VALID,918.381,VALID,0.0,VALID,97.838,VALID,0.055,VALID,21.885,VALID,329.0,VALID,0.0,
2019-07-05, 00:21:06,VALID,918.366,VALID,0.0,VALID,97.731,VALID,0.037,VALID,21.898,VALID,329.0,VALID,0.0,
2019-07-05, 00:22:06,VALID,918.335,VALID,0.0,VALID,97.651,VALID,0.059,VALID,21.924,VALID,329.0,VALID,0.0,
2019-07-05, 00:23:06,VALID,918.336,VALID,0.0,VALID,97.653,VALID,0.047,VALID,21.979,VALID,329.0,VALID,0.0,
2019-07-05, 00:24:06,VALID,918.314,VALID,0.0,VALID,97.524,VALID,0.051,VALID,21.987,VALID,329.0,VALID,0.0,
2019-07-05, 00:25:06,VALID,918.303,VALID,0.0,VALID,97.539,VALID,0.046,VALID,22.008,VALID,329.0,VALID,0.0,
2019-07-05, 00:26:06,VALID,918.283,VALID,0.0,VALID,97.596,VALID,0.036,VALID,22.035,VALID,329.0,VALID,0.0,
2019-07-05, 00:27:06,VALID,918.265,VALID,0.0,VALID,97.567,VALID,0.043,VALID,22.052,VALID,329.0,VALID,0.0,
2019-07-05, 00:28:06,VALID,918.265,VALID,0.0,VALID,97.628,VALID,0.04,VALID,22.062,VALID,329.0,VALID,0.0,
2019-07-05, 00:29:06,VALID,918.28,VALID,0.0,VALID,97.547,VALID,0.041,VALID,22.061,VALID,331.0,VALID,0.0,
2019-07-05, 00:30:06,VALID,918.285,VALID,0.0,VALID,97.546,VALID,0.026,VALID,22.059,VALID,41.0,VALID,0.0,
2019-07-05, 00:31:06,VALID,918.294,VALID,0.0,VALID,97.482,VALID,0.031,VALID,22.021,VALID,42.0,VALID,0.0,
2019-07-05, 00:32:06,VALID,918.294,VALID,0.0,VALID,97.567,VALID,0.058,VALID,21.997,VALID,42.0,VALID,0.0,
2019-07-05, 00:33:06,VALID,918.281,VALID,0.0,VALID,97.639,VALID,0.071,VALID,21.957,VALID,73.0,VALID,0.0,
2019-07-05, 00:34:06,VALID,918.289,VALID,0.0,VALID,97.865,VALID,0.051,VALID,21.963,VALID,130.0,VALID,0.0,
2019-07-05, 00:35:06,VALID,918.282,VALID,0.0,VALID,97.955,VALID,0.07,VALID,21.978,VALID,130.0,VALID,0.0,
2019-07-05, 00:36:06,VALID,918.29,VALID,0.0,VALID,97.863,VALID,0.056,VALID,21.956,VALID,130.0,VALID,0.0,
2019-07-05, 00:37:06,VALID,918.318,VALID,0.0,VALID,97.798,VALID,0.076,VALID,21.945,VALID,127.0,VALID,0.0,
2019-07-05, 00:38:06,VALID,918.312,VALID,0.0,VALID,97.852,VALID,0.059,VALID,21.98,VALID,74.0,VALID,0.0,
2019-07-05, 00:39:06,VALID,918.315,VALID,0.0,VALID,97.957,VALID,0.071,VALID,22.02,VALID,74.0,VALID,0.0,
2019-07-05, 00:40:06,VALID,918.325,VALID,0.0,VALID,97.859,VALID,0.063,VALID,22.006,VALID,74.0,VALID,0.0,
2019-07-05, 00:41:06,VALID,918.308,VALID,0.0,VALID,97.774,VALID,0.055,VALID,22.01,VALID,74.0,VALID,0.0,
2019-07-05, 00:42:06,VALID,918.29,VALID,0.0,VALID,97.686,VALID,0.054,VALID,22.022,VALID,58.0,VALID,0.0,
2019-07-05, 00:43:06,VALID,918.276,VALID,0.0,VALID,97.716,VALID,0.075,VALID,22.06,VALID,37.0,VALID,0.0,
2019-07-05, 00:44:06,VALID,918.267,VALID,0.0,VALID,97.601,VALID,0.078,VALID,22.069,VALID,32.0,VALID,0.0,
2019-07-05, 00:45:06,VALID,918.264,VALID,0.0,VALID,97.324,VALID,0.057,VALID,22.037,VALID,27.0,VALID,0.0,
2019-07-05, 00:46:06,VALID,918.245,VALID,0.0,VALID,96.983,VALID,0.062,VALID,21.983,VALID,27.0,VALID,0.0,
2019-07-05, 00:47:06,VALID,918.259,VALID,0.0,VALID,97.135,VALID,0.042,VALID,21.998,VALID,29.0,VALID,0.0,
2019-07-05, 00:48:06,VALID,918.272,VALID,0.0,VALID,97.171,VALID,0.034,VALID,21.996,VALID,37.0,VALID,0.0,
2019-07-05, 00:49:06,VALID,918.279,VALID,0.0,VALID,97.201,VALID,0.034,VALID,22.006,VALID,19.0,VALID,0.0,
2019-07-05, 00:50:06,VALID,918.282,VALID,0.0,VALID,97.151,VALID,0.02,VALID,22.004,VALID,9.0,VALID,0.0,
2019-07-05, 00:51:06,VALID,918.273,VALID,0.0,VALID,97.092,VALID,0.015,VALID,21.981,VALID,353.0,VALID,0.0,
2019-07-05, 00:52:06,VALID,918.257,VALID,0.0,VALID,97.11,VALID,0.03,VALID,21.963,VALID,343.0,VALID,0.0,
2019-07-05, 00:53:06,VALID,918.264,VALID,0.0,VALID,97.236,VALID,0.016,VALID,21.992,VALID,344.0,VALID,0.0,
2019-07-05, 00:54:06,VALID,918.25,VALID,0.0,VALID,97.222,VALID,0.015,VALID,21.998,VALID,342.0,VALID,0.0,
2019-07-05, 00:55:06,VALID,918.23,VALID,0.0,VALID,97.038,VALID,0.024,VALID,21.975,VALID,318.0,VALID,0.0,
2019-07-05, 00:56:06,VALID,918.21,VALID,0.0,VALID,97.134,VALID,0.021,VALID,21.982,VALID,342.0,VALID,0.0,
2019-07-05, 00:57:06,VALID,918.182,VALID,0.0,VALID,97.162,VALID,0.026,VALID,21.956,VALID,4.0,VALID,0.0,
2019-07-05, 00:58:06,VALID,918.174,VALID,0.0,VALID,97.185,VALID,0.015,VALID,21.903,VALID,1.0,VALID,0.0,
2019-07-05, 00:59:06,VALID,918.178,VALID,0.0,VALID,97.367,VALID,0.026,VALID,21.88,VALID,5.0,VALID,0.0,
2019-07-05, 01:00:06,VALID,918.166,VALID,0.0,VALID,97.58,VALID,0.023,VALID,21.871,VALID,11.0,VALID,0.0,
2019-07-05, 01:01:06,VALID,918.179,VALID,0.0,VALID,97.456,VALID,0.026,VALID,21.8,VALID,360.0,VALID,0.0,
2019-07-05, 01:02:06,VALID,918.184,VALID,0.0,VALID,97.504,VALID,0.037,VALID,21.767,VALID,345.0,VALID,0.0,
2019-07-05, 01:03:06,VALID,918.171,VALID,0.0,VALID,97.42,VALID,0.046,VALID,21.727,VALID,343.0,VALID,0.0,
2019-07-05, 01:04:06,VALID,918.188,VALID,0.0,VALID,97.401,VALID,0.062,VALID,21.742,VALID,4.0,VALID,0.0,
2019-07-05, 01:05:06,VALID,918.168,VALID,0.0,VALID,97.556,VALID,0.043,VALID,21.762,VALID,4.0,VALID,0.0,
2019-07-05, 01:06:06,VALID,918.169,VALID,0.0,VALID,97.61,VALID,0.046,VALID,21.752,VALID,358.0,VALID,0.0,
2019-07-05, 01:07:06,VALID,918.152,VALID,0.0,VALID,97.552,VALID,0.058,VALID,21.72,VALID,345.0,VALID,0.0,
2019-07-05, 01:08:06,VALID,918.144,VALID,0.0,VALID,97.583,VALID,0.054,VALID,21.712,VALID,358.0,VALID,0.0,
2019-07-05, 01:09:06,VALID,918.147,VALID,0.0,VALID,97.683,VALID,0.049,VALID,21.69,VALID,345.0,VALID,0.0,
2019-07-05, 01:10:06,VALID,918.14,VALID,0.0,VALID,97.759,VALID,0.042,VALID,21.68,VALID,355.0,VALID,0.0,
2019-07-05, 01:11:06,VALID,918.129,VALID,0.0,VALID,97.821,VALID,0.043,VALID,21.676,VALID,356.0,VALID,0.0,
2019-07-05, 01:12:06,VALID,918.115,VALID,0.0,VALID,97.761,VALID,0.051,VALID,21.652,VALID,357.0,VALID,0.0,
2019-07-05, 01:13:06,VALID,918.1,VALID,0.0,VALID,97.85,VALID,0.062,VALID,21.642,VALID,355.0,VALID,0.0,
2019-07-05, 01:14:06,VALID,918.083,VALID,0.0,VALID,97.926,VALID,0.082,VALID,21.651,VALID,355.0,VALID,0.0,
2019-07-05, 01:15:06,VALID,918.073,VALID,0.0,VALID,97.98,VALID,0.074,VALID,21.657,VALID,344.0,VALID,0.0,
2019-07-05, 01:16:06,VALID,918.033,VALID,0.0,VALID,97.957,VALID,0.076,VALID,21.655,VALID,357.0,VALID,0.0,
2019-07-05, 01:17:06,VALID,918.026,VALID,0.0,VALID,97.957,VALID,0.06,VALID,21.658,VALID,333.0,VALID,0.0,
2019-07-05, 01:18:06,VALID,918.005,VALID,0.0,VALID,97.891,VALID,-0.033,VALID,21.64,VALID,337.0,VALID,0.0,
2019-07-05, 01:19:06,VALID,917.991,VALID,0.0,VALID,97.724,VALID,-0.049,VALID,21.606,VALID,352.0,VALID,0.0,
2019-07-05, 01:20:06,VALID,917.976,VALID,0.0,VALID,97.533,VALID,-0.041,VALID,21.597,VALID,2.0,VALID,0.0,
2019-07-05, 01:21:06,VALID,917.965,VALID,0.0,VALID,97.559,VALID,-0.057,VALID,21.625,VALID,347.0,VALID,0.0,
2019-07-05, 01:22:06,VALID,917.936,VALID,0.0,VALID,97.445,VALID,-0.046,VALID,21.62,VALID,334.0,VALID,0.0,
2019-07-05, 01:23:06,VALID,917.89,VALID,0.0,VALID,97.351,VALID,-0.033,VALID,21.616,VALID,324.0,VALID,0.0,
2019-07-05, 01:24:06,VALID,917.849,VALID,0.0,VALID,97.268,VALID,-0.048,VALID,21.627,VALID,319.0,VALID,0.0,
2019-07-05, 01:25:06,VALID,917.815,VALID,0.0,VALID,97.268,VALID,-0.041,VALID,21.65,VALID,319.0,VALID,0.0,
2019-07-05, 01:26:06,VALID,917.8,VALID,0.0,VALID,97.307,VALID,-0.039,VALID,21.666,VALID,264.0,VALID,0.0,
2019-07-05, 01:27:06,VALID,917.804,VALID,0.0,VALID,97.276,VALID,-0.032,VALID,21.665,VALID,238.0,VALID,0.0,
2019-07-05, 01:28:06,VALID,917.818,VALID,0.0,VALID,97.342,VALID,-0.044,VALID,21.653,VALID,232.0,VALID,0.0,
2019-07-05, 01:29:06,VALID,917.834,VALID,0.0,VALID,97.51,VALID,-0.035,VALID,21.661,VALID,223.0,VALID,0.0,
2019-07-05, 01:30:06,VALID,917.826,VALID,0.0,VALID,97.544,VALID,-0.031,VALID,21.641,VALID,213.0,VALID,0.0,
2019-07-05, 01:31:06,VALID,917.821,VALID,0.0,VALID,97.521,VALID,-0.029,VALID,21.607,VALID,213.0,VALID,0.0,
2019-07-05, 01:32:06,VALID,917.818,VALID,0.0,VALID,97.416,VALID,-0.002,VALID,21.58,VALID,213.0,VALID,0.0,
2019-07-05, 01:33:06,VALID,917.762,VALID,0.0,VALID,97.278,VALID,0.034,VALID,21.543,VALID,279.0,VALID,0.0,
2019-07-05, 01:34:06,VALID,917.741,VALID,0.0,VALID,97.213,VALID,0.024,VALID,21.537,VALID,330.0,VALID,0.0,
2019-07-05, 01:35:06,VALID,917.719,VALID,0.0,VALID,97.122,VALID,0.024,VALID,21.541,VALID,330.0,VALID,0.0,
2019-07-05, 01:36:06,VALID,917.714,VALID,0.0,VALID,97.037,VALID,0.02,VALID,21.535,VALID,332.0,VALID,0.0,
2019-07-05, 01:37:06,VALID,917.757,VALID,0.0,VALID,97.023,VALID,0.02,VALID,21.528,VALID,338.0,VALID,0.0,
2019-07-05, 01:38:06,VALID,917.781,VALID,0.0,VALID,97.029,VALID,0.008,VALID,21.49,VALID,340.0,VALID,0.0,
2019-07-05, 01:39:06,VALID,917.821,VALID,0.0,VALID,97.195,VALID,0.005,VALID,21.469,VALID,340.0,VALID,0.0,
2019-07-05, 01:40:06,VALID,917.831,VALID,0.0,VALID,97.406,VALID,0.014,VALID,21.458,VALID,340.0,VALID,0.0,
2019-07-05, 01:41:06,VALID,917.836,VALID,0.0,VALID,97.538,VALID,0.008,VALID,21.45,VALID,340.0,VALID,0.0,
2019-07-05, 01:42:06,VALID,917.817,VALID,0.0,VALID,97.616,VALID,0.021,VALID,21.448,VALID,340.0,VALID,0.0,
2019-07-05, 01:43:06,VALID,917.79,VALID,0.0,VALID,97.559,VALID,0.022,VALID,21.413,VALID,340.0,VALID,0.0,
2019-07-05, 01:44:06,VALID,917.75,VALID,0.0,VALID,97.528,VALID,0.012,VALID,21.4,VALID,340.0,VALID,0.0,
2019-07-05, 01:45:06,VALID,917.715,VALID,0.0,VALID,97.575,VALID,0.021,VALID,21.392,VALID,340.0,VALID,0.0,
2019-07-05, 01:46:06,VALID,917.68,VALID,0.0,VALID,97.671,VALID,0.009,VALID,21.402,VALID,340.0,VALID,0.0,
2019-07-05, 01:47:06,VALID,917.657,VALID,0.0,VALID,97.758,VALID,0.003,VALID,21.436,VALID,318.0,VALID,0.0,
2019-07-05, 01:48:06,VALID,917.637,VALID,0.0,VALID,97.857,VALID,0.003,VALID,21.488,VALID,269.0,VALID,0.0,
2019-07-05, 01:49:06,VALID,917.6,VALID,0.0,VALID,97.877,VALID,0.008,VALID,21.52,VALID,253.0,VALID,0.0,
2019-07-05, 01:50:06,VALID,917.585,VALID,0.0,VALID,97.953,VALID,-0.002,VALID,21.546,VALID,253.0,VALID,0.0,
2019-07-05, 01:51:06,VALID,917.571,VALID,0.0,VALID,97.945,VALID,0.007,VALID,21.55,VALID,267.0,VALID,0.0,
2019-07-05, 01:52:06,VALID,917.543,VALID,0.0,VALID,97.812,VALID,-0.001,VALID,21.521,VALID,332.0,VALID,0.0,
2019-07-05, 01:53:06,VALID,917.535,VALID,0.0,VALID,97.678,VALID,-0.004,VALID,21.501,VALID,340.0,VALID,0.0,
2019-07-05, 01:54:06,VALID,917.505,VALID,0.0,VALID,97.678,VALID,0.005,VALID,21.482,VALID,340.0,VALID,0.0,
2019-07-05, 01:55:06,VALID,917.497,VALID,0.0,VALID,97.808,VALID,-0.008,VALID,21.483,VALID,347.0,VALID,0.0,
2019-07-05, 01:56:06,VALID,917.498,VALID,0.0,VALID,97.842,VALID,0.005,VALID,21.461,VALID,1.0,VALID,0.0,
2019-07-05, 01:57:06,VALID,917.475,VALID,0.0,VALID,97.82,VALID,-0.009,VALID,21.422,VALID,5.0,VALID,0.0,
2019-07-05, 01:58:06,VALID,917.464,VALID,0.0,VALID,97.812,VALID,0.02,VALID,21.381,VALID,5.0,VALID,0.0,
2019-07-05, 01:59:06,VALID,917.508,VALID,0.0,VALID,97.943,VALID,-0.002,VALID,21.385,VALID,360.0,VALID,0.0,
2019-07-05, 02:00:06,VALID,917.54,VALID,0.0,VALID,98.069,VALID,-0.009,VALID,21.403,VALID,358.0,VALID,0.0,
2019-07-05, 02:01:06,VALID,917.588,VALID,0.0,VALID,98.074,VALID,0.021,VALID,21.416,VALID,358.0,VALID,0.0,
2019-07-05, 02:02:06,VALID,917.647,VALID,0.0,VALID,98.065,VALID,0.025,VALID,21.428,VALID,279.0,VALID,0.0,
2019-07-05, 02:03:06,VALID,917.701,VALID,0.0,VALID,97.954,VALID,0.011,VALID,21.419,VALID,228.0,VALID,0.0,
2019-07-05, 02:04:06,VALID,917.769,VALID,0.0,VALID,97.992,VALID,0.006,VALID,21.428,VALID,195.0,VALID,0.0,
2019-07-05, 02:05:06,VALID,917.795,VALID,0.0,VALID,97.942,VALID,-0.003,VALID,21.413,VALID,195.0,VALID,0.0,
2019-07-05, 02:06:06,VALID,917.808,VALID,0.0,VALID,97.994,VALID,-0.001,VALID,21.425,VALID,190.0,VALID,0.0,
2019-07-05, 02:07:06,VALID,917.797,VALID,0.0,VALID,98.123,VALID,0.013,VALID,21.454,VALID,190.0,VALID,0.0,
2019-07-05, 02:08:06,VALID,917.789,VALID,0.0,VALID,98.161,VALID,0.016,VALID,21.469,VALID,190.0,VALID,0.0,
2019-07-05, 02:09:06,VALID,917.737,VALID,0.0,VALID,98.241,VALID,0.021,VALID,21.523,VALID,190.0,VALID,0.0,
2019-07-05, 02:10:06,VALID,917.694,VALID,0.0,VALID,98.257,VALID,0.012,VALID,21.548,VALID,190.0,VALID,0.0,
2019-07-05, 02:11:06,VALID,917.666,VALID,0.0,VALID,98.236,VALID,-0.002,VALID,21.575,VALID,312.0,VALID,0.0,
2019-07-05, 02:12:06,VALID,917.62,VALID,0.0,VALID,98.157,VALID,0.013,VALID,21.579,VALID,360.0,VALID,0.0,
2019-07-05, 02:13:06,VALID,917.606,VALID,0.0,VALID,97.97,VALID,-0.003,VALID,21.558,VALID,359.0,VALID,0.0,
2019-07-05, 02:14:06,VALID,917.587,VALID,0.0,VALID,97.862,VALID,0.013,VALID,21.556,VALID,359.0,VALID,0.0,
2019-07-05, 02:15:06,VALID,917.579,VALID,0.0,VALID,97.843,VALID,0.009,VALID,21.569,VALID,359.0,VALID,0.0,
2019-07-05, 02:16:06,VALID,917.552,VALID,0.0,VALID,97.852,VALID,0.015,VALID,21.576,VALID,359.0,VALID,0.0,
2019-07-05, 02:17:06,VALID,917.553,VALID,0.0,VALID,97.859,VALID,0.006,VALID,21.57,VALID,359.0,VALID,0.0,
2019-07-05, 02:18:06,VALID,917.566,VALID,0.0,VALID,97.981,VALID,0.001,VALID,21.584,VALID,316.0,VALID,0.0,
2019-07-05, 02:19:06,VALID,917.568,VALID,0.0,VALID,98.054,VALID,0.003,VALID,21.565,VALID,201.0,VALID,0.0,
2019-07-05, 02:20:06,VALID,917.609,VALID,0.0,VALID,98.118,VALID,0.007,VALID,21.526,VALID,171.0,VALID,0.0,
2019-07-05, 02:21:06,VALID,917.63,VALID,0.0,VALID,98.184,VALID,0.003,VALID,21.492,VALID,137.0,VALID,0.0,
2019-07-05, 02:22:06,VALID,917.666,VALID,0.0,VALID,98.255,VALID,0.009,VALID,21.494,VALID,134.0,VALID,0.0,
2019-07-05, 02:23:06,VALID,917.658,VALID,0.0,VALID,98.296,VALID,0.021,VALID,21.5,VALID,157.0,VALID,0.0,
2019-07-05, 02:24:06,VALID,917.651,VALID,0.0,VALID,98.269,VALID,0.008,VALID,21.485,VALID,172.0,VALID,0.0,
2019-07-05, 02:25:06,VALID,917.642,VALID,0.0,VALID,98.248,VALID,0.001,VALID,21.453,VALID,178.0,VALID,0.0,
2019-07-05, 02:26:06,VALID,917.601,VALID,0.0,VALID,98.291,VALID,0.014,VALID,21.465,VALID,178.0,VALID,0.0,
2019-07-05, 02:27:06,VALID,917.562,VALID,0.0,VALID,98.385,VALID,0.041,VALID,21.504,VALID,218.0,VALID,0.0,
2019-07-05, 02:28:06,VALID,917.52,VALID,0.0,VALID,98.387,VALID,0.022,VALID,21.532,VALID,335.0,VALID,0.0,
2019-07-05, 02:29:06,VALID,917.474,VALID,0.0,VALID,98.32,VALID,0.004,VALID,21.523,VALID,359.0,VALID,0.0,
2019-07-05, 02:30:06,VALID,917.441,VALID,0.0,VALID,98.228,VALID,0.019,VALID,21.486,VALID,4.0,VALID,0.0,
2019-07-05, 02:31:06,VALID,917.41,VALID,0.0,VALID,98.245,VALID,0.017,VALID,21.469,VALID,360.0,VALID,0.0,
2019-07-05, 02:32:06,VALID,917.394,VALID,0.0,VALID,98.205,VALID,0.035,VALID,21.439,VALID,348.0,VALID,0.0,
2019-07-05, 02:33:06,VALID,917.372,VALID,0.0,VALID,98.317,VALID,0.086,VALID,21.465,VALID,343.0,VALID,0.0,
2019-07-05, 02:34:06,VALID,917.381,VALID,0.0,VALID,98.384,VALID,0.071,VALID,21.488,VALID,351.0,VALID,0.0,
2019-07-05, 02:35:06,VALID,917.413,VALID,0.0,VALID,98.381,VALID,0.075,VALID,21.468,VALID,18.0,VALID,0.0,
2019-07-05, 02:36:06,VALID,917.431,VALID,0.0,VALID,98.399,VALID,0.065,VALID,21.484,VALID,25.0,VALID,0.0,
2019-07-05, 02:37:06,VALID,917.442,VALID,0.0,VALID,98.415,VALID,0.064,VALID,21.497,VALID,29.0,VALID,0.0,
2019-07-05, 02:38:06,VALID,917.448,VALID,0.0,VALID,98.432,VALID,0.063,VALID,21.504,VALID,43.0,VALID,0.0,
2019-07-05, 02:39:06,VALID,917.461,VALID,0.0,VALID,98.452,VALID,0.057,VALID,21.544,VALID,43.0,VALID,0.0,
2019-07-05, 02:40:06,VALID,917.467,VALID,0.0,VALID,98.386,VALID,0.052,VALID,21.512,VALID,43.0,VALID,0.0,
2019-07-05, 02:41:06,VALID,917.43,VALID,0.0,VALID,98.4,VALID,0.068,VALID,21.533,VALID,43.0,VALID,0.0,
2019-07-05, 02:42:06,VALID,917.415,VALID,0.0,VALID,98.352,VALID,0.066,VALID,21.52,VALID,41.0,VALID,0.0,
2019-07-05, 02:43:06,VALID,917.39,VALID,0.0,VALID,98.225,VALID,0.055,VALID,21.494,VALID,27.0,VALID,0.0,
2019-07-05, 02:44:06,VALID,917.355,VALID,0.0,VALID,98.189,VALID,0.057,VALID,21.496,VALID,15.0,VALID,0.0,
2019-07-05, 02:45:06,VALID,917.353,VALID,0.0,VALID,98.257,VALID,0.067,VALID,21.53,VALID,8.0,VALID,0.0,
2019-07-05, 02:46:06,VALID,917.34,VALID,0.0,VALID,98.22,VALID,0.072,VALID,21.531,VALID,5.0,VALID,0.0,
2019-07-05, 02:47:06,VALID,917.357,VALID,0.0,VALID,98.161,VALID,0.054,VALID,21.529,VALID,4.0,VALID,0.0,
2019-07-05, 02:48:06,VALID,917.386,VALID,0.0,VALID,98.081,VALID,-0.012,VALID,21.512,VALID,4.0,VALID,0.0,
2019-07-05, 02:49:06,VALID,917.396,VALID,0.0,VALID,98.086,VALID,0.005,VALID,21.523,VALID,319.0,VALID,0.0,
2019-07-05, 02:50:06,VALID,917.39,VALID,0.0,VALID,98.191,VALID,-0.012,VALID,21.561,VALID,304.0,VALID,0.0,
2019-07-05, 02:51:06,VALID,917.388,VALID,0.0,VALID,98.103,VALID,-0.016,VALID,21.524,VALID,233.0,VALID,0.0,
2019-07-05, 02:52:06,VALID,917.363,VALID,0.0,VALID,98.171,VALID,-0.009,VALID,21.526,VALID,238.0,VALID,0.0,
2019-07-05, 02:53:06,VALID,917.352,VALID,0.0,VALID,98.254,VALID,-0.003,VALID,21.534,VALID,237.0,VALID,0.0,
2019-07-05, 02:54:06,VALID,917.323,VALID,0.0,VALID,98.353,VALID,-0.008,VALID,21.559,VALID,236.0,VALID,0.0,
2019-07-05, 02:55:06,VALID,917.301,VALID,0.0,VALID,98.403,VALID,-0.009,VALID,21.569,VALID,236.0,VALID,0.0,
2019-07-05, 02:56:06,VALID,917.296,VALID,0.0,VALID,98.434,VALID,-0.002,VALID,21.571,VALID,224.0,VALID,0.0,
2019-07-05, 02:57:06,VALID,917.274,VALID,0.0,VALID,98.397,VALID,-0.009,VALID,21.546,VALID,213.0,VALID,0.0,
2019-07-05, 02:58:06,VALID,917.273,VALID,0.0,VALID,98.367,VALID,-0.009,VALID,21.494,VALID,204.0,VALID,0.0,
2019-07-05, 02:59:06,VALID,917.258,VALID,0.0,VALID,98.464,VALID,-0.004,VALID,21.488,VALID,160.0,VALID,0.0,
2019-07-05, 03:00:06,VALID,917.253,VALID,0.0,VALID,98.526,VALID,0.007,VALID,21.479,VALID,161.0,VALID,0.0,
2019-07-05, 03:01:06,VALID,917.246,VALID,0.0,VALID,98.61,VALID,0.008,VALID,21.503,VALID,149.0,VALID,0.0,
2019-07-05, 03:02:06,VALID,917.252,VALID,0.0,VALID,98.633,VALID,0.005,VALID,21.498,VALID,120.0,VALID,0.0,
2019-07-05, 03:03:06,VALID,917.254,VALID,0.2,VALID,98.634,VALID,0.041,VALID,21.499,VALID,86.0,VALID,0.0,
2019-07-05, 03:04:06,VALID,917.248,VALID,0.0,VALID,98.709,VALID,0.029,VALID,21.556,VALID,73.0,VALID,0.0,
2019-07-05, 03:05:06,VALID,917.275,VALID,0.0,VALID,98.733,VALID,0.039,VALID,21.536,VALID,71.0,VALID,0.0,
2019-07-05, 03:06:06,VALID,917.283,VALID,0.0,VALID,98.649,VALID,0.034,VALID,21.49,VALID,79.0,VALID,0.0,
2019-07-05, 03:07:06,VALID,917.298,VALID,0.0,VALID,98.599,VALID,0.02,VALID,21.459,VALID,85.0,VALID,0.0,
2019-07-05, 03:08:06,VALID,917.321,VALID,0.0,VALID,98.546,VALID,0.021,VALID,21.43,VALID,96.0,VALID,0.0,
2019-07-05, 03:09:06,VALID,917.322,VALID,0.0,VALID,98.482,VALID,0.034,VALID,21.394,VALID,114.0,VALID,0.0,
2019-07-05, 03:10:06,VALID,917.336,VALID,0.0,VALID,98.589,VALID,0.028,VALID,21.444,VALID,128.0,VALID,0.0,
2019-07-05, 03:11:06,VALID,917.347,VALID,0.0,VALID,98.644,VALID,0.04,VALID,21.48,VALID,159.0,VALID,0.0,
2019-07-05, 03:12:06,VALID,917.34,VALID,0.0,VALID,98.531,VALID,0.04,VALID,21.43,VALID,128.0,VALID,0.0,
2019-07-05, 03:13:06,VALID,917.334,VALID,0.0,VALID,98.472,VALID,0.048,VALID,21.397,VALID,154.0,VALID,0.0,
2019-07-05, 03:14:06,VALID,917.335,VALID,0.0,VALID,98.378,VALID,0.039,VALID,21.372,VALID,161.0,VALID,0.0,
2019-07-05, 03:15:06,VALID,917.332,VALID,0.0,VALID,98.394,VALID,0.023,VALID,21.387,VALID,169.0,VALID,0.0,
2019-07-05, 03:16:06,VALID,917.332,VALID,0.0,VALID,98.456,VALID,0.022,VALID,21.424,VALID,171.0,VALID,0.0,
2019-07-05, 03:17:06,VALID,917.322,VALID,0.0,VALID,98.418,VALID,0.03,VALID,21.405,VALID,171.0,VALID,0.0,
2019-07-05, 03:18:06,VALID,917.332,VALID,0.0,VALID,98.382,VALID,0.01,VALID,21.388,VALID,168.0,VALID,0.0,
2019-07-05, 03:19:06,VALID,917.343,VALID,0.0,VALID,98.4,VALID,0.021,VALID,21.389,VALID,174.0,VALID,0.0,
2019-07-05, 03:20:06,VALID,917.335,VALID,0.0,VALID,98.566,VALID,0.002,VALID,21.456,VALID,175.0,VALID,0.0,
2019-07-05, 03:21:06,VALID,917.348,VALID,0.0,VALID,98.551,VALID,0.011,VALID,21.436,VALID,175.0,VALID,0.0,
2019-07-05, 03:22:06,VALID,917.346,VALID,0.0,VALID,98.463,VALID,0.024,VALID,21.392,VALID,164.0,VALID,0.0,
2019-07-05, 03:23:06,VALID,917.366,VALID,0.0,VALID,98.451,VALID,0.026,VALID,21.375,VALID,162.0,VALID,0.0,
2019-07-05, 03:24:06,VALID,917.364,VALID,0.0,VALID,98.421,VALID,0.013,VALID,21.361,VALID,162.0,VALID,0.0,
2019-07-05, 03:25:06,VALID,917.392,VALID,0.0,VALID,98.368,VALID,0.004,VALID,21.327,VALID,162.0,VALID,0.0,
2019-07-05, 03:26:06,VALID,917.407,VALID,0.0,VALID,98.424,VALID,0.013,VALID,21.335,VALID,162.0,VALID,0.0,
2019-07-05, 03:27:06,VALID,917.411,VALID,0.0,VALID,98.507,VALID,0.004,VALID,21.36,VALID,162.0,VALID,0.0,
2019-07-05, 03:28:06,VALID,917.417,VALID,0.0,VALID,98.548,VALID,0.01,VALID,21.37,VALID,164.0,VALID,0.0,
2019-07-05, 03:29:06,VALID,917.412,VALID,0.0,VALID,98.577,VALID,0.023,VALID,21.381,VALID,174.0,VALID,0.0,
2019-07-05, 03:30:06,VALID,917.388,VALID,0.0,VALID,98.592,VALID,0.013,VALID,21.386,VALID,174.0,VALID,0.0,
2019-07-05, 03:31:06,VALID,917.39,VALID,0.0,VALID,98.652,VALID,0.023,VALID,21.401,VALID,174.0,VALID,0.0,
2019-07-05, 03:32:06,VALID,917.383,VALID,0.0,VALID,98.532,VALID,0.012,VALID,21.322,VALID,170.0,VALID,0.0,
2019-07-05, 03:33:06,VALID,917.376,VALID,0.0,VALID,98.486,VALID,-0.016,VALID,21.3,VALID,169.0,VALID,0.0,
2019-07-05, 03:34:06,VALID,917.361,VALID,0.0,VALID,98.461,VALID,-0.009,VALID,21.277,VALID,169.0,VALID,0.0,
2019-07-05, 03:35:06,VALID,917.353,VALID,0.0,VALID,98.446,VALID,-0.003,VALID,21.256,VALID,169.0,VALID,0.0,
2019-07-05, 03:36:06,VALID,917.365,VALID,0.0,VALID,98.5,VALID,-0.006,VALID,21.273,VALID,169.0,VALID,0.0,
2019-07-05, 03:37:06,VALID,917.35,VALID,0.0,VALID,98.56,VALID,-0.012,VALID,21.285,VALID,169.0,VALID,0.0,
2019-07-05, 03:38:06,VALID,917.351,VALID,0.0,VALID,98.554,VALID,-0.011,VALID,21.291,VALID,169.0,VALID,0.0,
2019-07-05, 03:39:07,VALID,917.317,VALID,0.0,VALID,98.574,VALID,-0.018,VALID,21.288,VALID,169.0,VALID,0.0,
2019-07-05, 03:40:07,VALID,917.293,VALID,0.0,VALID,98.583,VALID,-0.021,VALID,21.285,VALID,169.0,VALID,0.0,
2019-07-05, 03:41:07,VALID,917.278,VALID,0.0,VALID,98.659,VALID,-0.017,VALID,21.331,VALID,169.0,VALID,0.0,
2019-07-05, 03:42:07,VALID,917.275,VALID,0.0,VALID,98.634,VALID,-0.004,VALID,21.327,VALID,169.0,VALID,0.0,
2019-07-05, 03:43:07,VALID,917.276,VALID,0.0,VALID,98.557,VALID,-0.022,VALID,21.295,VALID,169.0,VALID,0.0,